Location: Jackson Park
(37.2862°N, 79.9123°W)
Time: 20:47:39
(UTC+00:00)

Vanguard 2 Rocket - Pass Details

Date: 18 May 2026
Orbit: 553 x 3286 km, 32.9° (Epoch: 6 June)

Event Time Altitude Azimuth Distance (km) Brightness Sun altitude
Rises 16:29:30 0° 255° (WSW) 4,989 10.6 69.7°
Reaches altitude 10° 16:32:15 10° 254° (WSW) 4,294 10.4 69.9°
Maximum altitude 16:45:01 74° 172° (S) 2,769 12.5 71.1°
Drops below altitude 10° 17:04:36 10° 92° (E) 6,224 11.3 72.2°
Sets 17:09:32 0° 91° (E) 7,251 11.5 72.3°
